Location: Mound City (historical)
(34.0564°N, 117.2656°W)
Time: 02:00:06
(UTC+00:00)

JB-3 - Pass Details

Date: 08 September 2024
Orbit: 504 x 557 km, 97.2° (Epoch: 10 October)

Event Time Altitude Azimuth Distance (km) Brightness Sun altitude
Rises 12:40:33 0° 173° (S) 2,622 7.7 -10.5°
Reaches altitude 10° 12:42:37 10° 176° (S) 1,748 6.8 -10.1°
Maximum altitude 12:46:23 68° 260° (W) 573 4.2 -9.3°
Drops below altitude 10° 12:50:14 10° 343° (NNW) 1,795 6.9 -8.5°
Sets 12:52:23 0° 346° (NNW) 2,700 7.8 -8.1°
